Weather History for Fairmont, MN

Change the Weather History Date:

Sunday, March 3, 2013

  Actual Average Record
Temperature  
Mean Temperature 30 °F -  
Max Temperature 35 °F 36 °F 67 °F (1983)
Min Temperature 24 °F 18 °F -7 °F (2014)
Degree Days  
Heating Degree Days 36    
Moisture  
Dew Point 18 °F    
Average Humidity 62    
Maximum Humidity 74    
Minimum Humidity 48    
Precipitation  
Precipitation 0.00 in - - ()
Sea Level Pressure  
Sea Level Pressure 30.00 in    
Wind  
Wind Speed - (North)    
Max Wind Speed -    
Max Gust Speed -    
Visibility 9 miles    
Events      
Averages and records for this station are not official NWS values.
T = Trace of Precipitation, MM = Missing Value Source: NWS Daily Summary

Daily Weather History Graph

Daily Weather History Graph

Search for Another Location

Airport:

Trip Planner

Search our weather history database for the weather conditions in past years. The results will help you decide how hot, cold, wet, or windy it might be!

Date:

Astronomy

Mar. 03, 2013 Rise Set
Actual Time 6:50 AM CST 6:09 PM CST
Civil Twilight 6:21 AM CST 6:38 PM CST
Nautical Twilight 5:48 AM CST 7:11 PM CST
Astronomical Twilight 5:15 AM CST 7:44 PM CST
Moon 12:00 AM CST (3/3) 9:53 AM CST (3/3)
Length of Visible Light 12h 16m
Length of Day
11h 18m
Waning Gibbous, 63% of the Moon is Illuminated
Mar 3
Waning Gibbous
Mar 4
Last Quarter
Mar 11
New
Mar 19
First Quarter
Mar 27
Full

Hourly Weather History & Observations

Time (CST) Temp. Dew Point Humidity Pressure Visibility Wind Dir Wind Speed Gust Speed Precip Events Conditions
12:15 AM 26.6 °F 17.6 °F 69% 30.13 in 10.0 mi North - - N/A   Overcast
12:35 AM 26.6 °F 15.8 °F 64% 30.12 in 10.0 mi North - - N/A   Overcast
12:55 AM 26.6 °F 17.6 °F 69% 30.12 in 10.0 mi North - - N/A   Overcast
1:35 AM 26.6 °F 17.6 °F 69% 30.11 in 10.0 mi North - - N/A   Overcast
1:55 AM 26.6 °F 17.6 °F 69% 30.11 in 10.0 mi North - - N/A   Overcast
2:15 AM 26.6 °F 15.8 °F 64% 30.11 in 10.0 mi North - - N/A   Overcast
2:35 AM 26.6 °F 15.8 °F 64% 30.10 in 10.0 mi North - - N/A   Overcast
2:55 AM 26.6 °F 15.8 °F 64% 30.08 in 10.0 mi North - - N/A   Overcast
3:15 AM 26.6 °F 17.6 °F 69% 30.08 in 10.0 mi North - - N/A   Overcast
3:35 AM 26.6 °F 17.6 °F 69% 30.07 in 10.0 mi North - - N/A   Overcast
3:55 AM 26.6 °F 17.6 °F 69% 30.07 in 10.0 mi North - - N/A   Overcast
4:15 AM 26.6 °F 17.6 °F 69% 30.06 in 10.0 mi North - - N/A   Overcast
4:35 AM 26.6 °F 17.6 °F 69% 30.06 in 10.0 mi North - - N/A   Overcast
4:55 AM 26.6 °F 17.6 °F 69% 30.06 in 10.0 mi North - - N/A   Mostly Cloudy
5:15 AM 26.6 °F 17.6 °F 69% 30.06 in 10.0 mi North - - N/A   Partly Cloudy
5:35 AM 24.8 °F 15.8 °F 69% 30.06 in 10.0 mi North - - N/A   Clear
5:55 AM 24.8 °F 15.8 °F 69% 30.06 in 10.0 mi North - - N/A   Clear
6:15 AM 24.8 °F 15.8 °F 69% 30.05 in 10.0 mi North - - N/A   Scattered Clouds
6:35 AM 24.8 °F 17.6 °F 74% 30.06 in 10.0 mi North - - N/A   Overcast
6:55 AM 26.6 °F 17.6 °F 69% 30.06 in 10.0 mi North - - N/A   Overcast
7:15 AM 26.6 °F 17.6 °F 69% 30.06 in 10.0 mi North - - N/A   Overcast
7:35 AM 26.6 °F 17.6 °F 69% 30.05 in 10.0 mi North - - N/A   Overcast
7:55 AM 26.6 °F 17.6 °F 69% 30.05 in 10.0 mi North - - N/A   Overcast
8:15 AM 26.6 °F 17.6 °F 69% 30.05 in 10.0 mi North - - N/A   Overcast
8:35 AM 26.6 °F 17.6 °F 69% 30.05 in 10.0 mi North - - N/A   Overcast
8:55 AM 26.6 °F 17.6 °F 69% 30.04 in 10.0 mi North - - N/A   Overcast
9:15 AM 28.4 °F 17.6 °F 64% 30.03 in 10.0 mi North - - N/A   Overcast
9:35 AM 28.4 °F 17.6 °F 64% 30.03 in 10.0 mi North - - N/A   Overcast
9:55 AM 28.4 °F 19.4 °F 69% 30.03 in 10.0 mi North - - N/A   Partly Cloudy
10:15 AM 30.2 °F 17.6 °F 60% 30.03 in 10.0 mi North - - N/A   Clear
10:35 AM 30.2 °F 17.6 °F 60% 30.03 in 10.0 mi North - - N/A   Clear
10:55 AM 32.0 °F 17.6 °F 55% 30.02 in 10.0 mi North - - N/A   Clear
11:15 AM 32.0 °F 17.6 °F 55% 30.02 in 10.0 mi North - - N/A   Clear
11:35 AM 33.8 °F 19.4 °F 56% 30.02 in 10.0 mi North - - N/A   Clear
11:55 AM 33.8 °F 19.4 °F 56% 30.01 in 10.0 mi North - - N/A   Clear
12:15 PM 33.8 °F 19.4 °F 56% 30.01 in 10.0 mi North - - N/A   Clear
12:35 PM 33.8 °F 19.4 °F 56% 30.00 in 10.0 mi North - - N/A   Clear
12:55 PM 33.8 °F 19.4 °F 56% 29.99 in 10.0 mi North - - N/A   Clear
1:15 PM 33.8 °F 19.4 °F 56% 29.98 in 10.0 mi North - - N/A   Clear
1:35 PM 35.6 °F 19.4 °F 52% 29.97 in 10.0 mi North - - N/A   Clear
1:55 PM 35.6 °F 19.4 °F 52% 29.96 in 10.0 mi North - - N/A   Clear
2:15 PM 35.6 °F 19.4 °F 52% 29.95 in 10.0 mi North - - N/A   Clear
2:35 PM 35.6 °F 19.4 °F 52% 29.95 in 10.0 mi North - - N/A   Clear
2:55 PM 35.6 °F 19.4 °F 52% 29.95 in 10.0 mi North - - N/A   Clear
3:15 PM 35.6 °F 21.2 °F 56% 29.94 in 10.0 mi North - - N/A   Clear
3:35 PM 35.6 °F 17.6 °F 48% 29.94 in 10.0 mi North - - N/A   Clear
3:55 PM 35.6 °F 19.4 °F 52% 29.93 in 10.0 mi North - - N/A   Clear
4:15 PM 35.6 °F 19.4 °F 52% 29.93 in 10.0 mi North - - N/A   Clear
4:35 PM 33.8 °F 19.4 °F 56% 29.92 in 10.0 mi North - - N/A   Clear
5:15 PM 33.8 °F 19.4 °F 56% 29.92 in 10.0 mi North - - N/A   Clear
5:35 PM 33.8 °F 19.4 °F 56% 29.92 in 10.0 mi North - - N/A   Scattered Clouds
5:55 PM 33.8 °F 17.6 °F 52% 29.92 in 10.0 mi North - - N/A   Overcast
6:35 PM 32.0 °F 17.6 °F 55% 29.91 in 10.0 mi North - - N/A   Overcast
6:55 PM 32.0 °F 15.8 °F 51% 29.92 in 10.0 mi North - - N/A   Overcast
7:15 PM 30.2 °F 15.8 °F 55% 29.92 in 10.0 mi North - - N/A   Overcast
7:35 PM 30.2 °F 15.8 °F 55% 29.92 in 10.0 mi North - - N/A   Overcast
7:55 PM 30.2 °F 15.8 °F 55% 29.92 in 10.0 mi North - - N/A   Overcast
8:15 PM 30.2 °F 15.8 °F 55% 29.92 in 10.0 mi North - - N/A   Overcast
8:35 PM 30.2 °F 15.8 °F 55% 29.92 in 10.0 mi North - - N/A   Overcast
9:15 PM 30.2 °F 15.8 °F 55% 29.90 in 10.0 mi North - - N/A   Overcast
9:35 PM 30.2 °F 15.8 °F 55% 29.91 in 8.0 mi North - - N/A   Overcast
9:55 PM 30.2 °F 17.6 °F 60% 29.91 in 5.0 mi North - - N/A   Overcast
10:15 PM 28.4 °F 17.6 °F 64% 29.92 in 2.0 mi North - - N/A   Overcast
10:35 PM 28.4 °F 19.4 °F 69% 29.93 in 1.5 mi North - - N/A   Overcast
10:55 PM 28.4 °F 19.4 °F 69% 29.92 in 1.5 mi North - - N/A   Overcast
11:15 PM 28.4 °F 21.2 °F 74% 29.91 in 1.2 mi North - - N/A   Overcast
11:35 PM 28.4 °F 19.4 °F 69% 29.91 in 1.2 mi North - - N/A   Overcast
11:55 PM 28.4 °F 21.2 °F 74% 29.90 in 1.2 mi North - - N/A   Overcast